Location: Wyoming Infrared Observatory
(41.0971°N, 105.9765°W)
Time: 23:25:19
(UTC-06:00)

Amateur Radio Satellites - All Passes

Search period start: 24 May 2015 22:55
Search period end: 25 May 2015 22:55
Location: Wyoming Infrared Observatory, 41.0971°N, 105.9765°W

Satellite Date Start Highest point End Downlink Frequencies (MHz)
Time Altitude Azimuth
UNISAT 6 24 May 22:57:21 23:00:55 24° 94° (E) 23:04:29 437.425
ZACube-1 24 May 23:03:17 23:07:21 29° 265° (W) 23:11:21 437.345
UKube-1 24 May 23:09:59 23:14:10 48° 260° (W) 23:18:23 .
50 SAT 24 May 23:12:07 23:16:08 80° 258° (WSW) 23:20:09 437.505
ESTCUBE 1 24 May 23:12:48 23:17:08 52° 74° (ENE) 23:21:32 437.505/2401.250
DX 1 24 May 23:15:14 23:19:20 39° 262° (W) 23:23:27 434.975-435.025
HUMSAT D 24 May 23:17:10 23:21:17 41° 262° (W) 23:25:23 437.325/437.525
VELOX 1 24 May 23:19:28 23:23:53 76° 258° (WSW) 23:28:21 145.980
BUGSAT 1 24 May 23:23:42 23:25:53 14° 90° (E) 23:28:15 437.445
CUBEBUG 1 24 May 23:24:50 23:29:07 61° 74° (ENE) 23:33:27 437.445
CUSAT 1 24 May 23:28:24 23:34:16 25° 61° (ENE) 23:39:25 437.405
QB50P1 24 May 23:28:50 23:32:18 24° 94° (E) 23:35:48 145.935-145.965
POLYITAN 1 24 May 23:29:25 23:32:56 25° 94° (E) 23:36:30 437.675
ANTELSAT 24 May 23:40:01 23:44:27 73° 102° (ESE) 23:48:45 437.575/2403.000
AISAT 24 May 23:50:44 23:54:46 33° 263° (W) 23:58:50 437.250
NANOSAT C BR1 25 May 00:00:34 00:04:47 54° 100° (E) 00:08:57 145.865
QB50P2 25 May 00:06:44 00:11:01 67° 101° (E) 00:15:15 145.880/145.840
SPROUT 25 May 00:13:01 00:17:15 56° 74° (ENE) 00:21:31 437.525
TIGRISAT 25 May 00:14:10 00:18:26 48° 288° (WNW) 00:22:35 435.000
POPSAT HIP 1 25 May 00:19:37 00:23:56 90° 320° (NW) 00:28:12 437.405
DANDE 25 May 00:22:25 00:30:15 50° 71° (ENE) 00:36:40 436.750
DUCHIFAT 1 25 May 00:23:33 00:27:52 84° 285° (WNW) 00:32:07 145.980
GONETS M04 25 May 00:24:33 00:32:56 47° 74° (ENE) 00:41:18
ISS 25 May 00:29:51 00:32:58 46° 139° (SE) 00:36:06 145.825
ITUPSAT 1 25 May 00:32:19 00:34:12 13° 62° (ENE) 00:36:18 437.325
UNISAT 6 25 May 00:33:52 00:37:44 29° 291° (WNW) 00:41:28 437.425
BEESAT 25 May 00:40:40 00:43:21 16° 64° (ENE) 00:46:13 436.000
TISAT 1 25 May 00:45:38 00:49:52 84° 257° (WSW) 00:54:10 437.305
SWISSCUBE 25 May 00:48:02 00:51:22 20° 66° (ENE) 00:54:50 437.505
ESTCUBE 1 25 May 00:51:51 00:54:24 14° 270° (W) 00:56:46 437.505/2401.250
O/OREOS (USA 219) 25 May 00:52:47 00:54:08 11° 49° (NE) 00:55:41 437.305
BUGSAT 1 25 May 00:57:32 01:01:42 49° 287° (WNW) 01:05:49 437.445
PCSat 25 May 00:58:28 01:02:56 28° 109° (ESE) 01:07:32 145.827
CUBEBUG 1 25 May 01:04:15 01:05:59 12° 272° (W) 01:07:28 437.445
QB50P1 25 May 01:04:26 01:08:10 29° 290° (WNW) 01:11:50 145.935-145.965
POLYITAN 1 25 May 01:05:08 01:08:51 28° 290° (WNW) 01:12:28 437.675
CUSAT 1 25 May 01:10:24 01:17:49 62° 266° (W) 01:23:35 437.405
ANTELSAT 25 May 01:19:13 01:20:40 11° 298° (WNW) 01:21:52 437.575/2403.000
Cosmos 2499 25 May 01:29:17 01:33:58 19° 64° (ENE) 01:38:55 435.465 / 435.565
NANOSAT C BR1 25 May 01:37:52 01:40:12 14° 295° (WNW) 01:42:23 145.865
Oscar 19 25 May 01:43:02 01:47:06 24° 93° (E) 01:51:16 437.125/150
QB50P2 25 May 01:44:43 01:46:25 12° 296° (WNW) 01:47:53 145.880/145.840
SPROUT 25 May 01:51:42 01:53:45 13° 271° (W) 01:55:35 437.525
DANDE 25 May 02:06:12 02:13:09 33° 274° (W) 02:18:48 436.750
ISS 25 May 02:06:42 02:09:30 26° 337° (NNW) 02:12:19 145.825
ITUPSAT 1 25 May 02:06:47 02:11:32 77° 258° (WSW) 02:16:19 437.325
BEESAT 25 May 02:16:04 02:20:46 60° 259° (W) 02:25:29 436.000
Gurwin Techsat 1B 25 May 02:17:24 02:19:56 14° 88° (E) 02:22:46 435.225
GONETS M04 25 May 02:21:44 02:29:39 38° 273° (W) 02:37:21
SWISSCUBE 25 May 02:24:23 02:28:56 45° 261° (W) 02:33:30 437.505
BEESAT 3 25 May 02:27:36 02:29:50 14° 40° (NE) 02:32:11 437.485
O/OREOS (USA 219) 25 May 02:29:48 02:34:17 84° 249° (WSW) 02:38:45 437.305
STARS 25 May 02:31:08 02:34:31 22° 67° (ENE) 02:38:02 437.465
PCSat 25 May 02:41:03 02:46:11 42° 306° (NW) 02:51:21 145.827
KKS-1 25 May 02:56:31 03:00:57 66° 74° (ENE) 03:05:27 437.445
BEESAT 2 25 May 03:12:24 03:15:59 28° 48° (NE) 03:19:33 435.950
Cosmos 2499 25 May 03:20:57 03:28:00 73° 265° (W) 03:35:06 435.465 / 435.565
Oscar 19 25 May 03:21:49 03:26:39 41° 290° (WNW) 03:31:25 437.125/150
SO-50 25 May 03:25:24 03:29:20 28° 113° (ESE) 03:33:27 436.795
ITAMSAT 1 25 May 03:30:29 03:35:43 73° 102° (ESE) 03:40:57 435.822/435.867
VERMONT LUNAR 25 May 03:33:55 03:36:56 38° 161° (SSE) 03:39:56 437.305
PHONESAT 2.4 25 May 03:36:49 03:39:03 16° 150° (SSE) 03:41:19 2401.200-2431.200
HORYU 2 25 May 03:41:52 03:43:57 13° 89° (E) 03:46:15 437.375
ISS 25 May 03:45:06 03:46:46 13° 356° (N) 03:48:26 145.825
Gurwin Techsat 1B 25 May 03:55:15 04:00:34 72° 286° (WNW) 04:05:52 435.225
BEESAT 3 25 May 04:04:16 04:08:21 71° 239° (WSW) 04:12:20 437.485
STARS 25 May 04:06:44 04:10:48 34° 263° (W) 04:14:52 437.465
MOZHAYETS 4 25 May 04:10:03 04:14:03 31° 70° (ENE) 04:18:05
AO-7 25 May 04:16:14 04:23:26 32° 95° (E) 04:30:47 29.400- 29.500
AIST 2 25 May 04:25:46 04:29:51 45° 52° (NE) 04:33:53 435.215
KKS-1 25 May 04:36:28 04:38:08 12° 272° (W) 04:39:32 437.445
BEESAT 2 25 May 04:50:29 04:54:02 28° 246° (WSW) 04:57:28 435.950
SO-50 25 May 05:05:22 05:09:45 37° 311° (NW) 05:14:16 436.795
JAS-2 25 May 05:05:27 05:10:40 87° 100° (E) 05:15:58 435.910
VERMONT LUNAR 25 May 05:10:47 05:14:00 81° 178° (S) 05:17:12 437.305
ITAMSAT 1 25 May 05:11:38 05:14:42 15° 298° (WNW) 05:17:32 435.822/435.867
PHONESAT 2.4 25 May 05:13:21 05:16:45 53° 165° (SSE) 05:20:09 2401.200-2431.200
HORYU 2 25 May 05:16:40 05:21:01 55° 287° (WNW) 05:25:20 437.375
ISS 25 May 05:21:47 05:24:09 18° 16° (NNE) 05:26:32 145.825
CUBESAT XI-V 25 May 05:43:07 05:46:45 24° 68° (ENE) 05:50:30 437.345
MOZHAYETS 4 25 May 05:47:26 05:51:18 25° 266° (W) 05:55:03
AIST 2 25 May 06:05:17 06:08:07 17° 249° (WSW) 06:10:47 435.215
AO-7 25 May 06:08:30 06:16:39 58° 294° (WNW) 06:24:45 29.400- 29.500
Cosmos 2491 25 May 06:08:55 06:16:38 34° 68° (ENE) 06:24:29 435.465 / 435.565
STRAND 1 25 May 06:10:27 06:14:18 23° 65° (ENE) 06:18:17 437.568
PRISM 25 May 06:24:29 06:27:58 28° 70° (ENE) 06:31:32 437.425
VERMONT LUNAR 25 May 06:47:59 06:51:08 57° 194° (SSW) 06:54:17 437.305
M-CUBED/EXP-1 PRIME 25 May 06:49:34 06:53:39 43° 68° (ENE) 06:57:26 437.505
PHONESAT 2.4 25 May 06:51:19 06:54:48 83° 184° (S) 06:58:16 2401.200-2431.200
JAS-2 25 May 06:53:25 06:55:10 11° 301° (WNW) 06:56:38 435.910
ISS 25 May 06:57:43 07:01:00 78° 35° (NE) 07:04:16 145.825
AUBIESAT-1 25 May 06:59:43 07:03:48 49° 69° (ENE) 07:07:37 437.475
YUBILEINY 25 May 07:02:02 07:09:06 30° 84° (E) 07:16:24 435.215
CUTE-I 25 May 07:06:58 07:12:11 50° 99° (E) 07:17:24 437.470
CUBESAT XI-V 25 May 07:19:53 07:24:04 33° 264° (W) 07:28:14 437.345
Cubesat XI-IV 25 May 07:26:50 07:32:13 77° 102° (ESE) 07:37:37 437.490
RS-15 25 May 07:46:36 07:52:16 17° 100° (E) 07:58:48 29.354- 29.394
STRAND 1 25 May 07:48:24 07:53:16 44° 262° (W) 07:58:08 437.568
PRISM 25 May 08:00:12 08:03:27 22° 266° (W) 08:06:38 437.425
AO-7 25 May 08:04:03 08:07:52 14° 314° (NW) 08:11:15 29.400- 29.500
Cosmos 2491 25 May 08:05:25 08:13:58 55° 269° (W) 08:22:23 435.465 / 435.565
AIST 1 25 May 08:08:02 08:12:18 50° 79° (E) 08:16:35
BRITE-PL 25 May 08:21:48 08:26:37 29° 92° (E) 08:31:23 437.365/2234.400
VERMONT LUNAR 25 May 08:25:45 08:27:59 17° 208° (SSW) 08:30:10 437.305
M-CUBED/EXP-1 PRIME 25 May 08:25:51 08:28:38 16° 262° (W) 08:31:08 437.505
PHONESAT 2.4 25 May 08:29:28 08:32:49 45° 198° (SSW) 08:36:08 2401.200-2431.200
GOMX 1 25 May 08:34:59 08:39:12 24° 91° (E) 08:43:24 467.674
ISS 25 May 08:35:49 08:37:02 11° 230° (SW) 08:38:07 145.825
AUBIESAT-1 25 May 08:36:26 08:38:47 14° 263° (W) 08:40:52 437.475
CUTE-I 25 May 08:47:51 08:51:57 22° 296° (WNW) 08:55:56 437.470
HO-68 25 May 08:51:41 08:57:32 28° 93° (E) 09:03:33 435.675
YUBILEINY 25 May 08:56:48 09:05:28 60° 283° (WNW) 09:14:04 435.215
Cubesat XI-IV 25 May 09:08:41 09:11:45 15° 299° (WNW) 09:14:36 437.490
CANX-2 25 May 09:28:16 09:32:22 48° 99° (E) 09:36:27 2200.000
Cosmos 2504 25 May 09:31:16 09:37:41 26° 85° (E) 09:44:04 435.465 / 435.565
CUTE 1.7 + AOD 2 25 May 09:32:08 09:36:13 48° 99° (E) 09:40:18 437.475
Oscar 11 25 May 09:34:17 09:36:12 13° 89° (E) 09:38:19 145.826/435.025
CINEMA 3 25 May 09:37:30 09:41:35 28° 94° (E) 09:45:32 145.822/145.860
TIGRISAT 25 May 09:37:46 09:40:26 16° 65° (ENE) 09:43:17 435.000
DOVE 4 25 May 09:44:38 09:49:49 71° 100° (E) 09:54:43 437.250
PCSat 25 May 09:45:53 09:50:17 25° 47° (NE) 09:54:45 145.827
AIST 1 25 May 09:47:19 09:49:33 13° 274° (W) 09:51:35
RS-15 25 May 09:52:09 10:02:59 78° 119° (ESE) 10:14:09 29.354- 29.394
UNISAT 6 25 May 09:56:10 09:59:52 24° 68° (ENE) 10:03:40 437.425
UWE-3 25 May 09:57:43 10:00:36 18° 90° (E) 10:03:34 435.000/436.395/437.385
SEEDS 25 May 09:57:45 10:01:57 80° 100° (E) 10:06:07 437.485
BRITE-PL 25 May 09:59:56 10:05:14 40° 290° (WNW) 10:10:17 437.365/2234.400
PHONESAT 2.4 25 May 10:08:47 10:10:27 13° 212° (SSW) 10:12:02 2401.200-2431.200
GOMX 1 25 May 10:12:24 10:17:33 44° 289° (WNW) 10:22:26 467.674
FUNcube-1 25 May 10:12:48 10:15:53 19° 92° (E) 10:19:01 145.935
COMPASS 1 25 May 10:14:08 10:18:19 83° 280° (W) 10:22:27 437.405
BUGSAT 1 25 May 10:15:40 10:16:17 10° 63° (ENE) 10:17:10 437.445
QB50P1 25 May 10:22:00 10:24:59 19° 67° (ENE) 10:28:06 145.935-145.965
POLYITAN 1 25 May 10:22:49 10:25:54 20° 67° (ENE) 10:29:07 437.675
AAUSAT CUBESAT 2 25 May 10:27:59 10:32:06 67° 284° (WNW) 10:36:12 437.432
ANTELSAT 25 May 10:38:21 10:43:00 65° 75° (ENE) 10:47:39 437.575/2403.000
HO-68 25 May 10:38:43 10:45:41 56° 291° (WNW) 10:52:36 435.675
CUBEBUG 2 25 May 10:41:37 10:46:07 68° 101° (E) 10:50:26 437.445
50 SAT 25 May 10:50:49 10:52:04 12° 89° (E) 10:53:33 437.505
ZACube-1 25 May 10:51:40 10:55:56 54° 99° (E) 11:00:06 437.345
NANOSAT C BR1 25 May 10:52:56 10:56:54 40° 72° (ENE) 11:00:57 145.865
UKube-1 25 May 10:57:48 11:01:29 27° 95° (E) 11:05:13 .
QB50P2 25 May 10:59:22 11:03:30 49° 73° (ENE) 11:07:40 145.880/145.840
HUMSAT D 25 May 11:01:32 11:05:13 30° 96° (E) 11:08:53 437.325/437.525
YUBILEINY 25 May 11:02:04 11:04:45 11° 308° (NW) 11:06:43 435.215
DX 1 25 May 11:03:32 11:07:32 34° 97° (E) 11:11:32 434.975-435.025
CANX-2 25 May 11:05:28 11:07:56 15° 294° (WNW) 11:10:14 2200.000
DELFI C3 25 May 11:07:54 11:11:54 71° 285° (WNW) 11:15:53 145.870
ESTCUBE 1 25 May 11:08:01 11:09:10 11° 88° (E) 11:10:37 437.505/2401.250
Oscar 11 25 May 11:08:34 11:12:47 53° 286° (WNW) 11:16:58 145.826/435.025
CUTE 1.7 + AOD 2 25 May 11:09:19 11:11:47 15° 294° (WNW) 11:14:06 437.475
VELOX 1 25 May 11:10:49 11:14:08 21° 93° (E) 11:17:33 145.980
POPSAT HIP 1 25 May 11:11:59 11:16:14 66° 75° (ENE) 11:20:31 437.405
TIGRISAT 25 May 11:12:07 11:16:46 58° 260° (W) 11:21:24 435.000
CINEMA 3 25 May 11:14:35 11:18:45 29° 291° (WNW) 11:22:41 145.822/145.860
DUCHIFAT 1 25 May 11:15:29 11:19:43 71° 75° (ENE) 11:24:00 145.980
CUBEBUG 1 25 May 11:15:59 11:17:25 12° 88° (E) 11:19:08 437.445
Cosmos 2504 25 May 11:22:19 11:30:39 63° 282° (WNW) 11:38:26 435.465 / 435.565
DOVE 4 25 May 11:23:59 11:26:56 15° 298° (WNW) 11:29:37 437.250
PCSat 25 May 11:28:46 11:34:03 53° 246° (WSW) 11:39:17 145.827
UNISAT 6 25 May 11:32:10 11:36:30 35° 264° (W) 11:40:46 437.425
UWE-3 25 May 11:33:13 11:37:23 40° 288° (WNW) 11:41:24 435.000/436.395/437.385
AISAT 25 May 11:41:03 11:45:23 45° 99° (E) 11:49:41 437.250
BUGSAT 1 25 May 11:47:05 11:51:12 73° 258° (WSW) 11:55:25 437.445
FUNcube-1 25 May 11:48:23 11:52:23 35° 289° (WNW) 11:56:14 145.935
SO-50 25 May 11:56:25 12:00:43 29° 46° (NE) 12:05:03 436.795
QB50P1 25 May 11:56:37 12:00:37 38° 263° (W) 12:04:38 145.935-145.965
POLYITAN 1 25 May 11:57:35 12:01:35 37° 263° (W) 12:05:36 437.675
RS-15 25 May 12:06:43 12:16:38 36° 325° (NW) 12:26:43 29.354- 29.394
ANTELSAT 25 May 12:18:01 12:20:16 13° 272° (W) 12:22:16 437.575/2403.000
CUBEBUG 2 25 May 12:20:19 12:22:14 12° 297° (WNW) 12:23:57 437.445
50 SAT 25 May 12:23:24 12:27:10 48° 286° (WNW) 12:30:53 437.505
ZACube-1 25 May 12:29:28 12:31:52 14° 296° (WNW) 12:34:04 437.345
NANOSAT C BR1 25 May 12:30:01 12:32:57 17° 269° (W) 12:35:47 145.865
HO-68 25 May 12:30:09 12:32:04 11° 310° (NW) 12:33:33 435.675
TISAT 1 25 May 12:31:35 12:34:04 15° 91° (E) 12:36:42 437.305
CUSAT 1 25 May 12:32:45 12:38:37 28° 85° (E) 12:45:21 437.405
UKube-1 25 May 12:33:53 12:37:35 27° 291° (WNW) 12:41:13 .
QB50P2 25 May 12:37:16 12:39:43 14° 270° (W) 12:42:00 145.880/145.840
HUMSAT D 25 May 12:37:34 12:40:50 22° 292° (WNW) 12:43:58 437.325/437.525
DX 1 25 May 12:40:09 12:43:37 22° 293° (WNW) 12:46:59 434.975-435.025
ESTCUBE 1 25 May 12:42:05 12:46:37 69° 285° (WNW) 12:51:07 437.505/2401.250
VELOX 1 25 May 12:46:42 12:50:51 37° 289° (WNW) 12:54:56 145.980
CUBEBUG 1 25 May 12:49:53 12:54:18 64° 285° (WNW) 12:58:42 437.445
POPSAT HIP 1 25 May 12:51:37 12:52:39 11° 272° (W) 12:53:23 437.405
Oscar 19 25 May 12:59:35 13:04:14 35° 69° (ENE) 13:08:58 437.125/150
ITAMSAT 1 25 May 13:12:06 13:14:41 14° 61° (ENE) 13:17:29 435.822/435.867
AISAT 25 May 13:18:32 13:21:39 18° 294° (WNW) 13:24:38 437.250
Cosmos 2504 25 May 13:23:31 13:25:56 11° 304° (NW) 13:27:39 435.465 / 435.565
GONETS M04 25 May 13:25:02 13:33:29 55° 91° (E) 13:42:03
DANDE 25 May 13:30:36 13:37:16 57° 92° (E) 13:45:24 436.750
SPROUT 25 May 13:35:38 13:39:59 72° 285° (WNW) 13:44:17 437.525
SO-50 25 May 13:36:45 13:41:25 40° 244° (WSW) 13:45:57 436.795
Gurwin Techsat 1B 25 May 13:37:54 13:41:56 23° 65° (ENE) 13:46:08 435.225
TISAT 1 25 May 14:06:02 14:10:08 45° 288° (WNW) 14:14:11 437.305
Cosmos 2499 25 May 14:07:38 14:11:57 16° 82° (E) 14:16:36 435.465 / 435.565
ITUPSAT 1 25 May 14:07:53 14:11:56 27° 95° (E) 14:16:02 437.325
CUSAT 1 25 May 14:13:35 14:20:43 62° 285° (WNW) 14:28:56 437.405
BEESAT 25 May 14:16:31 14:20:51 34° 97° (E) 14:25:12 436.000
SWISSCUBE 25 May 14:24:34 14:29:09 45° 99° (E) 14:33:44 437.505
RS-15 25 May 14:25:46 14:33:40 21° 359° (N) 14:41:47 29.354- 29.394
Oscar 19 25 May 14:39:09 14:43:39 29° 266° (W) 14:48:05 437.125/150
HORYU 2 25 May 14:40:33 14:42:46 14° 64° (ENE) 14:45:10 437.375
ITAMSAT 1 25 May 14:48:26 14:53:37 77° 257° (WSW) 14:58:49 435.822/435.867
KKS-1 25 May 14:49:39 14:51:34 13° 89° (E) 14:53:42 437.445
O/OREOS (USA 219) 25 May 15:06:19 15:07:20 11° 99° (E) 15:08:39 437.305
DANDE 25 May 15:14:41 15:21:05 32° 295° (WNW) 15:28:18 436.750
AO-7 25 May 15:15:02 15:22:41 45° 63° (ENE) 15:30:28 29.400- 29.500
Gurwin Techsat 1B 25 May 15:16:35 15:21:40 46° 261° (W) 15:26:46 435.225
JAS-2 25 May 15:16:54 15:23:00 39° 70° (ENE) 15:28:33 435.910
GONETS M04 25 May 15:22:53 15:30:47 34° 291° (WNW) 15:38:32
ITUPSAT 1 25 May 15:45:36 15:49:50 31° 291° (WNW) 15:54:01 437.325
BEESAT 25 May 15:54:37 15:58:34 26° 293° (WNW) 16:02:25 436.000
Cosmos 2499 25 May 15:56:05 16:04:20 89° 272° (W) 16:12:00 435.465 / 435.565
STARS 25 May 15:56:13 16:00:25 42° 98° (E) 16:04:37 437.465
CUSAT 1 25 May 16:01:35 16:05:30 14° 308° (NW) 16:09:02 437.405
SWISSCUBE 25 May 16:03:13 16:06:43 20° 294° (WNW) 16:10:06 437.505
HORYU 2 25 May 16:14:31 16:18:58 61° 259° (W) 16:23:25 437.375
KKS-1 25 May 16:24:14 16:28:40 59° 286° (WNW) 16:33:02 437.445
RS-15 25 May 16:40:56 16:50:56 34° 33° (NNE) 17:01:31 29.354- 29.394
O/OREOS (USA 219) 25 May 16:41:44 16:46:15 69° 294° (WNW) 16:50:44 437.305
CUTE-I 25 May 16:53:23 16:54:45 11° 59° (ENE) 16:56:26 437.470
JAS-2 25 May 17:01:59 17:08:09 34° 264° (W) 17:13:38 435.910
AO-7 25 May 17:07:45 17:15:33 43° 262° (W) 17:23:19 29.400- 29.500
Cubesat XI-IV 25 May 17:11:25 17:14:38 17° 62° (ENE) 17:18:04 437.490
YUBILEINY 25 May 17:12:55 17:16:40 14° 55° (NE) 17:21:02 435.215
STARS 25 May 17:33:26 17:36:36 19° 294° (WNW) 17:39:37 437.465
MOZHAYETS 4 25 May 17:41:35 17:46:10 75° 102° (ESE) 17:50:43
Cosmos 2499 25 May 17:53:34 17:58:38 17° 298° (WNW) 18:03:07 435.465 / 435.565
BEESAT 3 25 May 17:57:43 18:00:44 21° 113° (ESE) 18:03:53 437.485
CUTE-I 25 May 18:28:46 18:34:04 81° 75° (ENE) 18:39:26 437.470
BEESAT 2 25 May 18:43:18 18:47:17 52° 118° (ESE) 18:51:20 435.950
Cubesat XI-IV 25 May 18:48:58 18:54:15 67° 258° (WSW) 18:59:34 437.490
RS-15 25 May 18:53:24 19:05:06 89° 235° (SW) 19:17:16 29.354- 29.394
YUBILEINY 25 May 19:06:53 19:15:35 70° 79° (E) 19:24:15 435.215
Cosmos 2491 25 May 19:10:09 19:17:54 38° 87° (E) 19:25:52 435.465 / 435.565
CUBESAT XI-V 25 May 19:15:59 19:20:38 60° 100° (E) 19:25:18 437.345
MOZHAYETS 4 25 May 19:21:06 19:22:51 12° 297° (WNW) 19:24:21
HO-68 25 May 19:21:18 19:26:25 22° 58° (ENE) 19:31:46 435.675
BRITE-PL 25 May 19:32:17 19:36:38 30° 68° (ENE) 19:41:23 437.365/2234.400
BEESAT 3 25 May 19:34:43 19:38:31 37° 309° (NW) 19:42:22 437.485
PRISM 25 May 19:41:29 19:45:29 47° 99° (E) 19:49:31 437.425
GOMX 1 25 May 19:42:39 19:46:47 25° 66° (ENE) 19:51:11 467.674
STRAND 1 25 May 19:58:37 20:03:44 63° 101° (E) 20:08:50 437.568
AIST 2 25 May 20:01:26 20:05:42 81° 303° (WNW) 20:10:01 435.215
M-CUBED/EXP-1 PRIME 25 May 20:05:52 20:08:42 27° 102° (ESE) 20:11:34 437.505
CUTE-I 25 May 20:12:42 20:14:55 12° 273° (W) 20:16:48 437.470
AUBIESAT-1 25 May 20:15:20 20:18:17 30° 102° (ESE) 20:21:16 437.475
CANX-2 25 May 20:21:09 20:25:01 35° 72° (ENE) 20:28:55 2200.000
BEESAT 2 25 May 20:22:46 20:25:42 18° 317° (NW) 20:28:34 435.950
CUTE 1.7 + AOD 2 25 May 20:24:56 20:28:48 34° 71° (ENE) 20:32:41 437.475
Oscar 11 25 May 20:30:16 20:31:31 11° 64° (ENE) 20:32:59 145.826/435.025
AIST 1 25 May 20:37:47 20:41:26 29° 91° (E) 20:45:10
CINEMA 3 25 May 20:38:39 20:42:51 29° 68° (ENE) 20:47:11 145.822/145.860
DOVE 4 25 May 20:49:14 20:54:16 70° 75° (ENE) 20:59:34 437.250
SEEDS 25 May 20:49:30 20:53:37 53° 74° (ENE) 20:57:44 437.485
CUBESAT XI-V 25 May 20:54:52 20:57:39 15° 295° (WNW) 21:00:14 437.345
UWE-3 25 May 20:54:56 20:57:52 17° 66° (ENE) 21:00:56 435.000/436.395/437.385
COMPASS 1 25 May 21:04:58 21:09:07 65° 75° (ENE) 21:13:17 437.405
YUBILEINY 25 May 21:05:01 21:11:42 24° 278° (W) 21:18:02 435.215
Cosmos 2491 25 May 21:06:12 21:14:38 48° 286° (WNW) 21:23:05 435.465 / 435.565
HO-68 25 May 21:06:18 21:13:31 76° 256° (WSW) 21:20:44 435.675
RS-15 25 May 21:07:38 21:16:21 23° 257° (WSW) 21:24:37 29.354- 29.394
FUNcube-1 25 May 21:08:42 21:11:42 18° 66° (ENE) 21:14:49 145.935
BRITE-PL 25 May 21:10:29 21:15:04 34° 266° (W) 21:19:56 437.365/2234.400
Cosmos 2504 25 May 21:15:08 21:22:00 45° 75° (ENE) 21:28:52 435.465 / 435.565
PRISM 25 May 21:18:08 21:20:37 15° 294° (WNW) 21:22:56 437.425
AAUSAT CUBESAT 2 25 May 21:18:18 21:22:28 79° 77° (ENE) 21:26:39 437.432
GOMX 1 25 May 21:19:49 21:24:39 42° 264° (W) 21:29:44 467.674
CUBEBUG 2 25 May 21:39:03 21:43:43 57° 74° (ENE) 21:48:25 437.445
STRAND 1 25 May 21:39:08 21:42:29 17° 297° (WNW) 21:45:39 437.568
M-CUBED/EXP-1 PRIME 25 May 21:41:20 21:43:26 16° 297° (WNW) 21:45:26 437.505
AIST 2 25 May 21:43:12 21:45:02 12° 323° (NW) 21:46:44 435.215
ZACube-1 25 May 21:47:05 21:51:26 44° 72° (ENE) 21:55:48 437.345
AUBIESAT-1 25 May 21:51:02 21:52:54 14° 298° (WNW) 21:54:39 437.475
UKube-1 25 May 21:52:52 21:56:16 24° 68° (ENE) 21:59:47 .
HUMSAT D 25 May 21:53:25 21:56:49 23° 69° (ENE) 22:00:17 437.325/437.525
DELFI C3 25 May 21:54:51 21:58:51 67° 76° (ENE) 22:02:52 145.870
CANX-2 25 May 21:57:53 22:01:04 20° 268° (W) 22:04:09 2200.000
DX 1 25 May 21:59:12 22:02:57 30° 69° (ENE) 22:06:47 434.975-435.025
CUTE 1.7 + AOD 2 25 May 22:01:38 22:04:50 20° 268° (W) 22:07:55 437.475
Oscar 11 25 May 22:02:50 22:07:11 72° 259° (W) 22:11:31 145.826/435.025
ESTCUBE 1 25 May 22:08:21 22:09:36 11° 62° (ENE) 22:11:05 437.505/2401.250
VELOX 1 25 May 22:08:49 22:11:54 19° 66° (ENE) 22:15:07 145.980
CUBEBUG 1 25 May 22:13:29 22:14:13 10° 62° (ENE) 22:15:13 437.445
CINEMA 3 25 May 22:15:25 22:19:56 34° 265° (W) 22:24:29 145.822/145.860
AIST 1 25 May 22:15:47 22:19:09 22° 288° (WNW) 22:22:26
SEEDS 25 May 22:27:49 22:29:48 13° 271° (W) 22:31:34 437.485
UWE-3 25 May 22:29:25 22:34:01 53° 261° (W) 22:38:37 435.000/436.395/437.385
DOVE 4 25 May 22:29:49 22:32:40 14° 274° (W) 22:35:18 437.250
ANTELSAT 25 May 22:32:36 22:34:27 13° 88° (E) 22:36:30 437.575/2403.000
AISAT 25 May 22:38:44 22:42:52 40° 71° (ENE) 22:47:05 437.250
FUNcube-1 25 May 22:43:14 22:47:41 48° 261° (W) 22:52:08 145.935
COMPASS 1 25 May 22:44:41 22:45:19 10° 272° (W) 22:45:39 437.405
